Simultaneous Nadir Overpasses (SNOs) Predictions

Prediction of SNOs between GOES-17 and METOP-A Satellite Orbit:

Table of predicted SNOs for the next 14.0 days since TLE Epoch: 3/20/2020
Index Date Time (GOES-17) GOES-17 Lat,Lon METOP-A Lat,Lon Distance(km) Time Diff (sec)
1 03/21/2020 18:06:30 -0.00,-137.22 0.63,-140.09 326.46 80
2 03/22/2020 17:48:31 -0.00,-137.22 -0.47,-135.10 241.33 80
3 03/24/2020 06:07:32 0.00,-137.20 -0.53,-139.74 288.04 80
4 03/25/2020 05:44:12 0.00,-137.20 0.57,-134.76 279.46 80
5 03/26/2020 18:03:04 -0.00,-137.23 0.48,-139.34 241.42 80
6 03/27/2020 17:45:04 -0.00,-137.22 -0.62,-134.36 325.73 80
7 03/29/2020 06:04:06 0.00,-137.19 -0.37,-139.00 204.84 80
8 03/30/2020 05:40:46 0.00,-137.18 0.73,-134.01 361.69 80
9 03/31/2020 17:59:37 -0.00,-137.19 0.32,-138.60 160.94 80
10 04/01/2020 17:41:38 -0.00,-137.18 -0.78,-133.62 405.05 80
11 04/03/2020 06:00:38 0.00,-137.13 -0.27,-138.24 127.14 80




NCC Satellite Simultaneous Nadir Overpasses (SNOs) Prediction Service
